Starlink 31822

operational
NORAD ID: 59752 Int'l Des: 2024-090 Owner: SPXS Country: US Constellation: starlink
LEOCIRCULAR

Starlink 31822について

説明を読み込み中...

リアルタイム位置

3D地球を読み込み中...

次回通過

高度履歴

Altitude vs Time

uPlot chart will show altitude changes over time

軌道要素

1 59752U 24090Y 25350.53184375 .00003696 00000-0 14381-3 0 9998
2 59752 42.9983 293.0056 0000354 308.3064 51.7755 15.27565355 90717
Epoch: Dec 16, 2025 • Age: 21 hours

現在のステータス

高度 495.2 km
速度 7.62 km/s
衛星直下点 -40.39°S, 67.1°W
打ち上げ日 May 13, 2024
運用期間 1.5 years
タイプ internet

技術仕様

分類 Payload
質量 730.00 kg
乾燥質量 700.00 kg
総質量 730.00 kg
長さ 0.30 m
直径 4.10 m
スパン 29.00 m
形状 Box + pan
製造者 SPXS
バスタイプ Starlink V2M
フェーズステータス In Orbit
所有者/国 SPXS/US

大規模コンステレーション

Loading constellations...